Regional Weather Roundup
Issued by NWS Charleston, SC

Current Version | Previous Version | Text Only | Print | Product List | Glossary Off
Versions: 1 2 3 4 5 6 7 8 9 10 11 12 13 14 15 16 17 18 19 20 21 22 23 24 25 26 27 28 29 30 31 32 33 34 35 36 37 38 39 40 41 42 43 44 45 46 47 48 49 50

911
ASUS42 KCHS 270927
RWRCHS

REGIONAL WEATHER ROUNDUP
NATIONAL WEATHER SERVICE CHARLESTON SC
500 AM EDT THU APR 27 2017

NOTE: "FAIR" INDICATES FEW OR NO CLOUDS BELOW 12,000 FEET WITH NO
SIGNIFICANT WEATHER AND/OR OBSTRUCTIONS TO VISIBILITY.

NOT ALL STATIONS ARE QUALITY CONTROLLED. USE DATA WITH CAUTION...
ESPECIALLY DEWPOINT OBSERVATIONS.

SCZ027-030-031-034>040-042>050-271000-
...SOUTHEAST SOUTH CAROLINA...

CITY           SKY/WX    TMP DP  RH WIND       PRES   REMARKS
N CHARLESTON   PTCLDY    64  62  93 S6        29.88R
WATERFRONT PRK   N/A     71  67  87 SW7       29.87S
JOHNS ISLAND   FAIR      72  66  83 SW9       29.88S
PINOPOLIS        N/A     64  64 100 S5        29.79R
MONCKS CORNER  FAIR      57  57 100 CALM      29.88S
SUMMERVILLE    FAIR      61  59  94 CALM      29.89R
BEAUFORT MCAS  CLEAR     66  65  96 SW3       29.88S
BEAUFORT ARPT  FAIR      68  64  88 SW3       29.87S
HILTON HEAD IS CLEAR     70  66  88 VRB7      29.88S
WALTERBORO     SUNNY     61  59  94 SW5       29.88F
ALLENDALE      FAIR      63  61  94 CALM      29.85F

...SOUTHERN MIDLANDS AND PEE DEE...

CITY           SKY/WX    TMP DP  RH WIND       PRES   REMARKS
GEORGETOWN     FAIR      59  59 100 CALM      29.90R
KINGSTREE      FAIR      59  57  94 CALM      29.88S
ORANGEBURG     CLEAR     61  60  97 S3        29.87S FOG
BARNWELL       FAIR      63  63 100 CALM      29.85F
AIKEN          FAIR      59  59 100 S6        29.87F
MANNING        FAIR      64  63  94 S15       29.87S
COLUMBIA       CLEAR     63  59  87 SW5       29.83F
SUMTER         PTCLDY    61  59  93 CALM      29.84S
FLORENCE       CLEAR     58  58 100 S3        29.87S
MYRTLE BEACH   CLEAR     67  65  93 S3        29.90
N MYRTLE BEACH CLEAR     67  66  97 SW6       29.88R

$$

GAZ063-065-086>088-099>101-113>116-118-119-134>141-150-271000-
...SOUTHEAST GEORGIA...

CITY           SKY/WX    TMP DP  RH WIND       PRES   REMARKS
SAVANNAH ARPT  CLEAR     64  61  90 SW3       29.88R
HUNTER AAF     CLEAR     65  65 100 CALM      29.85S
FORT STEWART   PTCLDY    60  58  92 CALM      29.85S
STATESBORO     CLEAR     59  59 100 CALM      29.86F
SYLVANIA       MOSUNNY  N/A N/A N/A CALM      29.86F
CLAXTON        FAIR     N/A N/A N/A CALM      29.87S

...CSRA...CENTRAL AND FAR SOUTHEAST GEORGIA...

CITY           SKY/WX    TMP DP  RH WIND       PRES   REMARKS
THOMSON        CLEAR     60  56  87 W3        29.88R
AUGUSTA-BUSH   FOG       59  58  96 SE3       29.82F VSB 3/4
AUGUSTA-DANIEL CLEAR     64  58  80 SE5       29.83F
SWAINSBORO     FAIR      59  55  88 CALM      29.85F
VIDALIA        CLEAR     61  55  82 CALM      29.85F
EASTMAN        CLOUDY    62  60  94 CALM      29.87R
HAZLEHURST     FAIR      64  60  90 S5        29.84S
ALMA           PTCLDY    59  57  93 SE5       29.85F
WAYCROSS       CLOUDY    63  62  97 SE3       29.85F
JESUP          PTSUNNY   59  55  88 CALM      29.87F
BAXLEY         MOCLDY    61  61 100 CALM      29.86S
BRUNSWICK      MOCLDY    61  61 100 CALM      29.88S
SAINT SIMONS   MOCLDY    70  61  73 S3        29.87S

$$

SCZ027-028-034-036>038-045-046-048>050-GAZ119-141-271000-
...LAKE AND SUPPLEMENTAL COASTAL OBSERVATIONS...

STATION/POSITION TIME  TEMP    WIND        PRES    WAVE   SWELL
                       AIR SEA DIR/SP/G            HT/PER HT/PER/DIR
                 (UTC) (F)     (DEG/KT/KT) (MB)    (FT/S) (FT/S/D)
WINYAH BAY       0830   68     230/  3     1012.0R
LAKE MURRAY      0920   66     230/  8/ 11 1009.5F
ACE BASIN NERRS  0845   69        CALM     1012.0R
FORT PULASKI     0900   69 74  250/  2/  3 1012.0
SAPELO ISLAND    0900   67     200/  5     1012.0

$$

ANZ835-935-AMZ111-154-330-350-352-354-370-450-454-472-271000-
...C-MAN AND BUOY OBSERVATIONS...

STATION/POSITION TIME  TEMP    WIND        PRES    WAVE   SWELL
                       AIR SEA DIR/SP/G            HT/PER HT/PER/DIR
                 (UTC) (F)     (DEG/KT/KT) (MB)    (FT/S) (FT/S/D)
BUOY 41004       0910   73 73  210/ 10/ 12 1012.0
BUOY 41008       0850   73 72  200/ 12/ 14 1011.4R   4/ 5   3/ 90/ 8
FOLLY BEACH CMAN 0900   71     230/ 11/ 13 1012.5R
CAPERS NEARSHORE 0808   74 72  220/ 12/ 16 1011.7S
FRIPP NEARSHORE  0808   72 72  210/ 14/ 19 1011.3F


STATION/POSITION TIME  TEMP    WIND        PRES    WAVE   SWELL
                       AIR SEA DIR/SP/G            HT/PER HT/PER/DIR
                 (UTC) (F)     (DEG/KT/KT) (MB)    (FT/S) (FT/S/D)
5E ST. MARYS GA  0900      73                N/A     4/ 5   2/100/13
FRYING PAN BUOY  0910   73 73  240/  6/  6 1012.0
BUOY 41025       0850   76 77  240/ 17/ 19 1012.3R   6/ 9   5/140/ 9
CAPE LOOKOUT NC  0900   70     220/  6/  7 1012.1S
BUOY 41002       0850   74 75  180/ 14/ 16 1014.8R   6/ 9   5/110/ 9
BUOY 41010       0910   76 78  160/ 14/ 17 1013.4
ST AUGUSTINE FL  0900   69 74  190/  8/  9 1012.8F


$$




USA.gov is the U.S. government's official web portal to all federal, state and local government web resources and services.